User: anonymous   Login
Location: Austin
(30.3000°N, 97.7500°W)
Time: 22:32:57
(UTC-05:00)
Language:

Cosmos 1378 - Orbit

View from above orbital plane
View from above orbital plane
View from above satellite
View from above satellite

Ground track
Ground track

The orbit data is extracted from the following two-line orbital elements,

1 13271U 82059A   24194.28574729  .00032738  00000-0  55011-3 0  9990
2 13271  82.4534 126.4884 0004281 142.5364 217.6187 15.51596891303621
Epoch (UTC): 12 July 2024 06:51:28
Eccentricity: 0.0004281
inclination: 82.4534°
perigee height: 409 km
apogee height: 415 km
right ascension of ascending node: 126.4884°
argument of perigee: 142.5364°
revolutions per day: 15.51596891
mean anomaly at epoch: 217.6187°
orbit number at epoch: 30362

The dashed part of the orbit path shows where the satellite is in the earth's shadow,  

DLR